Location: Foligno
(42.9600°N, 12.7050°E)
Time: 01:27:21
(UTC+02:00)

ISS - Pass Details

Date: 19 July 2018
Orbit: 402 x 408 km, 51.6° (Epoch: 22 July)

Event Time Altitude Azimuth Distance (km) Brightness Sun altitude
Rises 04:43:19 0° 303° (WNW) 2,332 -0.1 -10.3°
Reaches altitude 10° 04:45:24 10° 304° (NW) 1,470 -1.1 -10.0°
Maximum altitude 04:48:42 85° 30° (NNE) 413 -3.8 -9.6°
Drops below altitude 10° 04:51:59 10° 123° (ESE) 1,464 -0.8 -9.1°
Sets 04:54:04 0° 123° (ESE) 2,322 0.3 -8.8°
